Location: South Tamworth Observatory
(43.8246°N, 71.3026°W)
Time: 11:26:03
(UTC-04:00)

Amateur Radio Satellites - All Passes

Search period start: 22 October 2014 10:56
Search period end: 23 October 2014 10:56
Location: South Tamworth Observatory, 43.8246°N, 71.3026°W

Satellite Date Start Highest point End Downlink Frequencies (MHz)
Time Altitude Azimuth
ZACube-1 22 Oct 11:35:36 11:39:48 53° 287° (WNW) 11:43:53 437.345 MHz
Oscar 16 22 Oct 11:39:14 11:40:10 11° 55° (NE) 11:41:07 437.025 USB, Beacon 2401.1428
JAS-1B 22 Oct 11:46:57 11:49:04 12° 54° (NE) 11:51:10 435.800 - 435.900 CW/SSB
UKube-1 22 Oct 11:47:08 11:50:13 19° 297° (WNW) 11:53:17 145.840 MHz, 145.915 MHz
HO-68 22 Oct 12:07:46 12:12:12 18° 309° (NW) 12:16:37 435.675 MHz FM
KITSAT 1 22 Oct 12:10:12 12:17:35 41° 110° (ESE) 12:24:59 435.175 FM
Sapphire 22 Oct 12:18:50 12:23:13 24° 43° (NE) 12:27:35 437.095 MHz 1200 baud AX-25 AFSK
FUNcube-1 22 Oct 12:21:58 12:24:59 19° 296° (WNW) 12:27:58 145.950 - 145.970 MHz USB
Oscar 19 22 Oct 12:29:10 12:33:31 28° 65° (ENE) 12:37:51 437.125 CW, 437.150 USB
AO-27 22 Oct 12:41:13 12:44:28 17° 59° (ENE) 12:47:43 436.795 MHz FM
PCSat 22 Oct 12:41:26 12:46:25 35° 49° (NE) 12:51:22 145.825 MHz
Oscar 16 22 Oct 13:13:27 13:18:36 71° 73° (ENE) 13:23:45 437.025 USB, Beacon 2401.1428
ISS 22 Oct 13:14:34 13:17:13 22° 136° (SE) 13:19:53 145.800 FM
SO-50 22 Oct 13:16:41 13:20:49 37° 116° (ESE) 13:25:04 436.795 FM
Uribyol 2 22 Oct 13:28:18 13:33:12 43° 69° (ENE) 13:38:09 436.500 FM
AO-Echo 22 Oct 13:31:00 13:35:42 51° 71° (ENE) 13:40:35 ?
JAS-1B 22 Oct 13:32:50 13:38:54 81° 74° (ENE) 13:44:35 435.800 - 435.900 CW/SSB
ITAMSAT 1 22 Oct 13:33:35 13:38:31 45° 69° (ENE) 13:43:29 435.822 SSB
Gurwin Techsat 1B 22 Oct 13:37:58 13:42:23 28° 64° (ENE) 13:46:48 435.225 FM
AO-7 22 Oct 13:43:49 13:48:26 16° 44° (NE) 13:53:03 29.400 - 29.500 MHz
TMSAT-1 22 Oct 13:51:03 13:55:25 27° 64° (ENE) 13:59:48 436.925 FM
Sapphire 22 Oct 14:01:43 14:07:06 65° 243° (WSW) 14:12:27 437.095 MHz 1200 baud AX-25 AFSK
KITSAT 1 22 Oct 14:04:59 14:12:49 52° 311° (NW) 14:20:42 435.175 FM
Oscar 19 22 Oct 14:07:53 14:12:42 39° 262° (W) 14:17:31 437.125 CW, 437.150 USB
AO-27 22 Oct 14:18:11 14:23:23 73° 257° (WSW) 14:28:38 436.795 MHz FM
PCSat 22 Oct 14:24:52 14:29:52 39° 248° (WSW) 14:34:50 145.825 MHz
ISS 22 Oct 14:50:25 14:53:42 55° 333° (NNW) 14:57:00 145.800 FM
UOSAT-12 22 Oct 14:55:04 14:59:15 34° 116° (ESE) 15:03:31 437.025 FM, 437.400 FM
Oscar 16 22 Oct 14:55:34 14:58:28 15° 270° (W) 15:01:22 437.025 USB, Beacon 2401.1428
SO-50 22 Oct 14:57:24 15:01:26 31° 316° (NW) 15:05:34 436.795 FM
Oscar 10/S400 22 Oct 15:00:11 15:17:22 43° 157° (SSE) 15:49:55 145.825 - 145.975 CW/USB, Beacon 145.810 USB
Saudisat 1A 22 Oct 15:04:11 15:06:09 13° 32° (NNE) 15:08:08 436.775 MHz
Uribyol 2 22 Oct 15:08:34 15:12:50 25° 266° (W) 15:17:09 436.500 FM
AO-Echo 22 Oct 15:11:20 15:14:49 19° 269° (W) 15:18:22 ?
ITAMSAT 1 22 Oct 15:14:02 15:18:12 24° 266° (W) 15:22:25 435.822 SSB
Uosat F 22 Oct 15:14:27 15:18:26 24° 63° (ENE) 15:22:26 435.120 FM
Gurwin Techsat 1B 22 Oct 15:17:07 15:22:08 42° 262° (W) 15:27:11 435.225 FM
JAS-1B 22 Oct 15:27:35 15:30:17 13° 271° (W) 15:32:56 435.800 - 435.900 CW/SSB
TMSAT-1 22 Oct 15:30:05 15:35:07 43° 262° (W) 15:40:11 436.925 FM
AO-7 22 Oct 15:31:31 15:39:38 63° 66° (ENE) 15:47:47 29.400 - 29.500 MHz
KITSAT 1 22 Oct 16:04:51 16:10:21 19° 337° (NNW) 16:15:52 435.175 FM
JAS-2 22 Oct 16:23:11 16:28:16 30° 61° (ENE) 16:33:55 435.800 - 435.900 CW/SSB, 435.910 FM
ISS 22 Oct 16:28:13 16:30:55 22° 352° (N) 16:33:37 145.800 FM
Hamsat 22 Oct 16:34:22 16:36:58 16° 64° (ENE) 16:39:34 145.90 MHz
UOSAT-12 22 Oct 16:35:08 16:39:23 34° 314° (NW) 16:43:43 437.025 FM, 437.400 FM
Saudisat 1A 22 Oct 16:42:12 16:46:37 63° 53° (NE) 16:50:59 436.775 MHz
OPAL 22 Oct 16:46:31 16:48:31 12° 91° (E) 16:50:30 ?
Uosat F 22 Oct 16:52:10 16:56:57 45° 261° (W) 17:01:47 435.120 FM
AO-7 22 Oct 17:25:51 17:32:54 31° 265° (W) 17:40:01 29.400 - 29.500 MHz
SO-67 22 Oct 18:01:12 18:03:12 15° 66° (ENE) 18:05:12 435.3500 MHz FM
KITSAT 1 22 Oct 18:05:20 18:09:36 15° 8° (N) 18:13:52 435.175 FM
ISS 22 Oct 18:05:31 18:08:22 25° 13° (NNE) 18:11:13 145.800 FM
JAS-2 22 Oct 18:07:25 18:13:01 48° 263° (W) 18:19:23 435.800 - 435.900 CW/SSB, 435.910 FM
Hamsat 22 Oct 18:08:27 18:12:33 49° 261° (W) 18:16:38 145.90 MHz
OPAL 22 Oct 18:23:00 18:28:00 80° 288° (WNW) 18:32:56 ?
Saudisat 1A 22 Oct 18:23:04 18:25:41 16° 250° (WSW) 18:28:18 436.775 MHz
STRAND 1 22 Oct 18:25:51 18:28:49 15° 90° (E) 18:31:46 ?
AO-40 22 Oct 18:30:04 00:18:23 41° 183° (S) 06:02:09 Beacon 2401.320
HO-68 22 Oct 19:03:13 19:08:05 20° 53° (NE) 19:12:59 435.675 MHz FM
SO-67 22 Oct 19:32:44 19:35:54 34° 263° (W) 19:39:05 435.3500 MHz FM
ISS 22 Oct 19:42:03 19:45:25 86° 32° (NNE) 19:48:45 145.800 FM
KITSAT 1 22 Oct 20:01:14 20:08:11 30° 37° (NE) 20:15:05 435.175 FM
STRAND 1 22 Oct 20:03:22 20:08:31 70° 287° (WNW) 20:13:37 ?
OPAL 22 Oct 20:04:20 20:06:04 12° 306° (NW) 20:07:48 ?
SO-50 22 Oct 20:07:33 20:09:38 13° 30° (NNE) 20:11:43 436.795 FM
Oscar 11 22 Oct 20:17:02 20:19:01 13° 61° (ENE) 20:20:59 145.825 FM, Beacon 2401.500 USB
RS-15 22 Oct 20:45:34 20:51:48 17° 98° (E) 20:57:59 29.354 - 29.394 USB, Beacon 29.352 USB
HO-68 22 Oct 20:47:41 20:54:52 89° 73° (ENE) 21:02:06 435.675 MHz FM
ZACube-1 22 Oct 20:58:26 21:01:18 17° 63° (ENE) 21:04:09 437.345 MHz
UKube-1 22 Oct 21:06:43 21:10:53 47° 71° (ENE) 21:15:05 145.840 MHz, 145.915 MHz
ISS 22 Oct 21:20:00 21:21:40 13° 228° (SW) 21:23:20 145.800 FM
FUNcube-1 22 Oct 21:42:01 21:46:21 42° 71° (ENE) 21:50:38 145.950 - 145.970 MHz USB
UOSAT-12 22 Oct 21:44:49 21:46:16 11° 27° (NNE) 21:47:42 437.025 FM, 437.400 FM
STRAND 1 22 Oct 21:45:59 21:46:45 10° 305° (NW) 21:47:31 ?
SO-50 22 Oct 21:46:33 21:51:17 52° 51° (NE) 21:56:03 436.795 FM
Oscar 11 22 Oct 21:50:19 21:54:38 69° 258° (WSW) 21:58:58 145.825 FM, Beacon 2401.500 USB
KITSAT 1 22 Oct 21:56:24 22:04:31 83° 240° (WSW) 22:12:35 435.175 FM
ZACube-1 22 Oct 22:32:43 22:37:15 58° 260° (W) 22:41:46 437.345 MHz
HO-68 22 Oct 22:39:02 22:43:28 17° 271° (W) 22:47:56 435.675 MHz FM
UKube-1 22 Oct 22:44:28 22:47:20 17° 268° (W) 22:50:12 145.840 MHz, 145.915 MHz
RS-15 22 Oct 22:51:10 23:02:06 75° 119° (ESE) 23:13:00 29.354 - 29.394 USB, Beacon 29.352 USB
FUNcube-1 22 Oct 23:19:26 23:22:52 21° 267° (W) 23:26:18 145.950 - 145.970 MHz USB
UOSAT-12 22 Oct 23:23:03 23:27:37 45° 49° (NE) 23:32:06 437.025 FM, 437.400 FM
SO-50 22 Oct 23:27:48 23:31:32 22° 248° (WSW) 23:35:16 436.795 FM
KITSAT 1 22 Oct 23:53:49 23:58:42 18° 259° (W) 00:03:35 435.175 FM
MaSat-1 23 Oct 00:32:30 00:36:42 84° 297° (WNW) 00:40:30 437.345 MHz
UOSAT-12 23 Oct 01:03:43 01:07:31 25° 247° (WSW) 01:11:16 437.025 FM, 437.400 FM
RS-15 23 Oct 01:05:20 01:15:25 40° 325° (NW) 01:25:37 29.354 - 29.394 USB, Beacon 29.352 USB
JAS-1B 23 Oct 01:14:27 01:19:20 21° 93° (E) 01:24:45 435.800 - 435.900 CW/SSB
Oscar 16 23 Oct 01:24:34 01:28:32 22° 93° (E) 01:32:28 437.025 USB, Beacon 2401.1428
AO-Echo 23 Oct 01:37:50 01:41:07 16° 90° (E) 01:44:24 ?
Uribyol 2 23 Oct 01:41:23 01:43:52 13° 89° (E) 01:46:21 436.500 FM
ITAMSAT 1 23 Oct 01:46:37 01:49:22 14° 89° (E) 01:52:06 435.822 SSB
MaSat-1 23 Oct 02:12:26 02:12:51 10° 313° (NW) 02:13:16 437.345 MHz
Oscar 19 23 Oct 02:17:38 02:22:44 67° 102° (ESE) 02:27:49 437.125 CW, 437.150 USB
AO-27 23 Oct 02:30:06 02:34:56 37° 97° (E) 02:39:43 436.795 MHz FM
Oscar 16 23 Oct 03:03:13 03:08:08 47° 290° (WNW) 03:13:01 437.025 USB, Beacon 2401.1428
JAS-1B 23 Oct 03:03:54 03:10:20 74° 287° (WNW) 03:18:01 435.800 - 435.900 CW/SSB
Sapphire 23 Oct 03:04:55 03:07:16 13° 102° (ESE) 03:09:38 437.095 MHz 1200 baud AX-25 AFSK
AO-Echo 23 Oct 03:15:04 03:20:21 69° 287° (WNW) 03:25:38 ?
Uribyol 2 23 Oct 03:18:43 03:23:57 79° 286° (WNW) 03:29:08 436.500 FM
RS-15 23 Oct 03:23:21 03:31:52 25° 359° (N) 03:40:32 29.354 - 29.394 USB, Beacon 29.352 USB
ITAMSAT 1 23 Oct 03:24:12 03:29:26 76° 286° (WNW) 03:34:38 435.822 SSB
PCSat 23 Oct 03:25:40 03:29:45 22° 107° (ESE) 03:33:52 145.825 MHz
Gurwin Techsat 1B 23 Oct 03:31:32 03:36:52 70° 102° (ESE) 03:42:09 435.225 FM
AO-7 23 Oct 03:33:15 03:38:22 17° 89° (E) 03:43:27 29.400 - 29.500 MHz
TMSAT-1 23 Oct 03:44:10 03:49:29 68° 102° (ESE) 03:54:45 436.925 FM
Oscar 19 23 Oct 03:58:15 04:01:33 18° 300° (WNW) 04:04:51 437.125 CW, 437.150 USB
OPAL 23 Oct 04:01:23 04:05:46 29° 63° (ENE) 04:10:08 ?
AO-27 23 Oct 04:09:47 04:14:20 31° 295° (WNW) 04:18:51 436.795 MHz FM
Sapphire 23 Oct 04:44:27 04:49:52 90° 301° (WNW) 04:55:20 437.095 MHz 1200 baud AX-25 AFSK
AO-Echo 23 Oct 04:56:59 04:58:09 11° 305° (NW) 04:59:19 ?
JAS-1B 23 Oct 04:57:04 05:00:11 14° 305° (NW) 05:03:30 435.800 - 435.900 CW/SSB
Uosat F 23 Oct 04:58:14 05:03:09 50° 100° (E) 05:08:02 435.120 FM
Uribyol 2 23 Oct 05:00:40 05:02:33 12° 304° (NW) 05:04:27 436.500 FM
ITAMSAT 1 23 Oct 05:06:23 05:08:01 11° 305° (NW) 05:09:40 435.822 SSB
PCSat 23 Oct 05:07:25 05:12:44 57° 305° (NW) 05:18:06 145.825 MHz
Gurwin Techsat 1B 23 Oct 05:12:49 05:16:16 18° 300° (WNW) 05:19:42 435.225 FM
JAS-2 23 Oct 05:14:20 05:20:54 29° 92° (E) 05:27:29 435.800 - 435.900 CW/SSB, 435.910 FM
AO-7 23 Oct 05:23:56 05:32:19 83° 108° (ESE) 05:40:40 29.400 - 29.500 MHz
TMSAT-1 23 Oct 05:25:20 05:28:51 18° 300° (WNW) 05:32:21 436.925 FM
RS-15 23 Oct 05:38:19 05:48:28 39° 33° (NNE) 05:58:54 29.354 - 29.394 USB, Beacon 29.352 USB
OPAL 23 Oct 05:39:43 05:44:31 38° 260° (W) 05:49:17 ?
STRAND 1 23 Oct 05:42:39 05:46:53 27° 64° (ENE) 05:51:07 ?
Hamsat 23 Oct 05:52:59 05:56:27 25° 95° (E) 05:59:56 145.90 MHz
Sapphire 23 Oct 06:30:19 06:34:04 19° 321° (NW) 06:37:51 437.095 MHz 1200 baud AX-25 AFSK
Uosat F 23 Oct 06:37:46 06:41:36 22° 298° (WNW) 06:45:25 435.120 FM
Saudisat 1A 23 Oct 06:53:07 06:54:19 11° 108° (ESE) 06:55:32 436.775 MHz
PCSat 23 Oct 06:54:47 06:57:23 13° 327° (NNW) 06:59:59 145.825 MHz
SO-67 23 Oct 06:55:35 06:57:26 14° 92° (E) 06:59:16 435.3500 MHz FM
JAS-2 23 Oct 06:58:41 07:06:18 66° 289° (WNW) 07:14:02 435.800 - 435.900 CW/SSB, 435.910 FM
AO-7 23 Oct 07:17:48 07:24:13 26° 308° (NW) 07:30:38 29.400 - 29.500 MHz
STRAND 1 23 Oct 07:21:01 07:25:51 42° 262° (W) 07:30:44 ?
Hamsat 23 Oct 07:28:45 07:32:24 29° 291° (WNW) 07:36:03 145.90 MHz
RS-15 23 Oct 07:50:53 08:02:03 81° 239° (WSW) 08:13:43 29.354 - 29.394 USB, Beacon 29.352 USB
HO-68 23 Oct 08:16:05 08:19:58 15° 88° (E) 08:23:50 435.675 MHz FM
SO-67 23 Oct 08:27:23 08:30:34 35° 288° (WNW) 08:33:44 435.3500 MHz FM
Saudisat 1A 23 Oct 08:28:49 08:33:12 84° 305° (NW) 08:37:38 436.775 MHz
MaSat-1 23 Oct 08:43:14 08:44:49 14° 50° (NE) 08:46:20 437.345 MHz
JAS-2 23 Oct 08:45:47 08:49:59 16° 308° (NW) 08:54:16 435.800 - 435.900 CW/SSB, 435.910 FM
Oscar 11 23 Oct 09:37:25 09:40:31 19° 93° (E) 09:43:37 145.825 FM, Beacon 2401.500 USB
HO-68 23 Oct 10:01:27 10:08:42 83° 106° (ESE) 10:15:54 435.675 MHz FM
RS-15 23 Oct 10:05:15 10:12:42 21° 260° (W) 10:20:23 29.354 - 29.394 USB, Beacon 29.352 USB
Saudisat 1A 23 Oct 10:10:51 10:13:28 15° 325° (NW) 10:16:05 436.775 MHz
MaSat-1 23 Oct 10:18:31 10:20:28 19° 252° (WSW) 10:22:19 437.345 MHz
ZACube-1 23 Oct 10:21:20 10:24:48 24° 94° (E) 10:28:12 437.345 MHz
UKube-1 23 Oct 10:29:23 10:33:47 73° 103° (ESE) 10:38:08 145.840 MHz, 145.915 MHz
KITSAT 1 23 Oct 10:39:00 10:39:46 10° 96° (E) 10:40:33 435.175 FM
